Hourly Weather Roundup
Issued by NWS Central Illinois

Home | Current Version | Previous Version | Text Only | Print | Product List | Glossary On
Versions: 1 2 3 4 5 6 7 8 9 10 11 12 13 14 15 16 17 18 19 20 21 22 23 24 25 26 27 28 29 30 31 32 33 34 35 36 37 38 39 40 41 42 43 44 45 46 47 48 49 50
000
NZUS43 KILX 231610
HWRILX

AREA WEATHER ROUNDUP
NATIONAL WEATHER SERVICE, LINCOLN IL
1100 AM CDT THU MAR 23 2017


CITY           SKY/WX    TMP DP  RH WIND       PRES   REMARKS
BLOOMINGTON    LGT RAIN  38  24  57 SE16      30.34F WCI  29
CHAMPAIGN      CLOUDY    41  21  44 SE14      30.36F WCI  33
DECATUR        LGT RAIN  39  26  59 SE14      30.35S WCI  31
EFFINGHAM      LGT RAIN  38  31  77 E8        30.38F WCI  32
FLORA          LGT RAIN  39  29  67 SE8       30.38F WCI  34
GALESBURG      CLOUDY    38  30  73 SE12G20   30.26F WCI  30
JACKSONVILLE   LGT RAIN  36  34  92 SE15      30.29F WCI  26
LACON          CLOUDY    37  25  61 SE12      30.32F WCI  30
LAWRENCEVILLE  CLOUDY    42  23  46 SE6       30.40F
LITCHFIELD     LGT RAIN  34  32  93 SE10      30.32F WCI  26
$$


CITY           SKY/WX    TMP DP  RH WIND       PRES   REMARKS
LINCOLN        CLOUDY    39  31  72 S13       30.33F WCI  31
MACOMB         CLOUDY    36  34  92 SE16      30.28F FOG     WCI  26
MATTOON        LGT RAIN  39  24  55 SE12      30.35F WCI  32
MT CARMEL AP   CLOUDY    42  22  46 SE7       30.39S
OLNEY-NOBLE AP LGT RAIN  37  28  70 SE6       30.39R WCI  33
PARIS          CLOUDY    41  25  53 SE15      30.38F WCI  33
PEORIA         LGT RAIN  38  28  67 SE13G20   30.31F WCI  30
PONTIAC        CLOUDY    39  27  61 SE14      30.36F WCI  31
RANTOUL        PTSUNNY   40  26  57 SE14      30.37F WCI  32
SPRINGFIELD    LGT RAIN  38  31  76 S12       30.34S WCI  30
TAYLORVILLE    RAIN      36  31  83 S9        30.34F WCI  29
$$

...REGIONAL REPORTS...


CITY           SKY/WX    TMP DP  RH WIND       PRES   REMARKS
CHICAGO O`HARE PTSUNNY   39  20  46 S14       30.37F WCI  31
KANKAKEE       CLOUDY    39  24  53 SE14      30.39F WCI  31
MOLINE         CLOUDY    40  24  53 SE13      30.26F WCI  32
MOUNT STERLING CLOUDY    35  33  92 SE16      30.25F WCI  25
MOUNT VERNON   RAIN      37  33  85 E7        30.35F WCI  32
PITTSFIELD     CLOUDY    37  35  90 SE15      30.27F WCI  28
QUINCY         LGT RAIN  38  34  85 SE16      30.23F WCI  29
ROCKFORD       MOSUNNY   43  23  45 SE20G25   30.34F WCI  34
$$


CITY           SKY/WX    TMP DP  RH WIND       PRES   REMARKS
BURLINGTON     MIX PCPN  36  35  96 SE14      30.22F FOG     WCI  27
CEDAR RAPIDS   CLOUDY    39  25  57 SE17G24   30.18F WCI  30
DES MOINES     CLOUDY    44  28  53 SE17G26   30.08F
KIRKSVILLE     CLOUDY    42  33  70 SE16      30.15F WCI  34
OTTUMWA        CLOUDY    40  30  67 SE16      30.14F WCI  31
ST LOUIS       CLOUDY    41  35  79 E14       30.28F WCI  33
$$


CITY           SKY/WX    TMP DP  RH WIND       PRES   REMARKS
TERRE HAUTE    PTSUNNY   44  23  43 SE8       30.40S
EVANSVILLE     CLOUDY    42  25  50 SE5       30.38F
INDIANAPOLIS   MOSUNNY   43  22  43 SE9       30.41S
LAFAYETTE      MOSUNNY   41  23  48 SE12      30.40F WCI  34
MADISON        CLOUDY    37  20  50 S21       30.29S WCI  26
MILWAUKEE      CLOUDY    38  21  50 S21       30.36F WCI  28
$$






USA.gov is the U.S. government's official web portal to all federal, state and local government web resources and services.